SAUDISAT 3

Last updated on Wed Sep 09 2026 00:03:43 GMT+0000 (Coordinated Universal Time)

1 31118U 07012B 26251.28807904 .00000191 00000+0 39043-4 0 9991 2 31118 98.1530 201.7729 0013905 328.0608 31.9754 14.71467393 39966
UTC large
Height (km)
Speed (km/s)
/
Latitude / Longitude
Inclination (degrees)
Orbital Period (minutes)
Azimuth
Elevation
Range (km)
Doppler Factor

Next 0 passes for location: London (51.5072 / 0.1276)

No passes found over London.
SAUDISAT 3